TimeMST,TemperatureF,Dew PointF,Humidity,Sea Level PressureIn,VisibilityMPH,Wind Direction,Wind SpeedMPH,Gust SpeedMPH,PrecipitationIn,Events,Conditions,WindDirDegrees,DateUTC
12:56 AM,30.9,27.0,85,29.81,-9999.0,Calm,Calm,-,N/A,,Unknown,0,2014-02-16 07:56:00
1:56 AM,33.1,28.9,85,29.75,-9999.0,Variable,4.6,-,N/A,,Unknown,0,2014-02-16 08:56:00
2:56 AM,32.0,30.9,96,29.75,-9999.0,Calm,Calm,-,0.03,,Unknown,0,2014-02-16 09:56:00
3:56 AM,32.0,30.9,96,29.75,-9999.0,Calm,Calm,-,0.04,,Unknown,0,2014-02-16 10:56:00
4:56 AM,32.0,28.9,88,29.70,-9999.0,Variable,3.5,-,N/A,,Unknown,0,2014-02-16 11:56:00
5:56 AM,33.1,28.0,82,29.67,-9999.0,West,8.1,-,0.02,,Unknown,280,2014-02-16 12:56:00
6:56 AM,30.9,28.0,89,29.67,-9999.0,Variable,5.8,-,0.01,,Unknown,0,2014-02-16 13:56:00
7:56 AM,32.0,27.0,82,29.65,-9999.0,WSW,11.5,23.0,0.01,,Unknown,250,2014-02-16 14:56:00
8:56 AM,32.0,26.1,79,29.65,-9999.0,West,9.2,24.2,N/A,,Unknown,260,2014-02-16 15:56:00
9:56 AM,32.0,26.1,79,29.62,-9999.0,West,9.2,27.6,0.01,,Unknown,260,2014-02-16 16:56:00
10:56 AM,32.0,26.1,79,29.61,-9999.0,WSW,9.2,20.7,0.01,,Unknown,240,2014-02-16 17:56:00
11:56 AM,30.0,28.0,92,29.61,-9999.0,Variable,6.9,-,0.04,,Unknown,0,2014-02-16 18:56:00
12:56 PM,28.0,21.9,78,29.66,-9999.0,West,11.5,23.0,0.12,,Unknown,260,2014-02-16 19:56:00
1:56 PM,26.1,23.0,88,29.69,-9999.0,West,10.4,21.9,0.04,,Unknown,280,2014-02-16 20:56:00
2:56 PM,23.0,19.0,85,29.77,-9999.0,West,8.1,-,0.12,,Unknown,280,2014-02-16 21:56:00
3:56 PM,24.1,15.1,69,29.80,-9999.0,West,10.4,25.3,0.01,,Unknown,280,2014-02-16 22:56:00
4:56 PM,21.9,12.0,66,29.86,-9999.0,West,9.2,-,N/A,,Unknown,270,2014-02-16 23:56:00
5:56 PM,19.9,10.9,68,29.91,-9999.0,West,12.7,21.9,N/A,,Unknown,270,2014-02-17 00:56:00
6:56 PM,18.0,9.0,68,29.98,-9999.0,West,10.4,23.0,N/A,,Unknown,280,2014-02-17 01:56:00
7:56 PM,15.1,8.1,74,30.06,-9999.0,NE,3.5,-,N/A,,Unknown,40,2014-02-17 02:56:00
8:56 PM,7.0,3.9,87,30.14,-9999.0,West,4.6,-,N/A,,Unknown,260,2014-02-17 03:56:00
9:56 PM,3.0,-0.0,87,30.18,-9999.0,WNW,4.6,-,N/A,,Unknown,290,2014-02-17 04:56:00
10:56 PM,14.0,10.0,84,30.12,-9999.0,West,9.2,19.6,N/A,,Unknown,270,2014-02-17 05:56:00
11:56 PM,16.0,10.9,81,30.15,-9999.0,Calm,Calm,-,N/A,,Unknown,0,2014-02-17 06:56:00